User: anonymous   Login
Location: Carrières
(48.9495°N, 2.0407°E)
Time: 21:04:59
(UTC+00:00)
Language:

NOAA 16 DEB - Orbit

View from above orbital plane
View from above orbital plane
View from above satellite
View from above satellite

Ground track
Ground track

The orbit data is extracted from the following two-line orbital elements,

1 42368U 00055RL  24057.66685877  .00004735  00000-0  23291-2 0  9992
2 42368  98.7646 132.8007 0009916 340.7517  19.3282 14.18055342407456
Epoch (UTC): 26 February 2024 16:00:16
Eccentricity: 0.0009916
inclination: 98.7646°
perigee height: 825 km
apogee height: 839 km
right ascension of ascending node: 132.8007°
argument of perigee: 340.7517°
revolutions per day: 14.18055342
mean anomaly at epoch: 19.3282°
orbit number at epoch: 40745

The dashed part of the orbit path shows where the satellite is in the earth's shadow,  

DLR